TimeEST,TemperatureF,Dew PointF,Humidity,Sea Level PressureIn,VisibilityMPH,Wind Direction,Wind SpeedMPH,Gust SpeedMPH,PrecipitationIn,Events,Conditions,WindDirDegrees,DateUTC
12:54 AM,61.0,60.1,97,29.91,3.0,SE,4.6,-,0.08,Rain,Rain,140,2011-11-16 05:54:00
1:18 AM,60.8,60.8,100,29.96,4.0,SSE,4.6,-,0.03,Rain,Light Rain,150,2011-11-16 06:18:00
1:54 AM,62.1,61.0,96,29.89,9.0,SSE,5.8,-,0.05,Rain,Light Rain,160,2011-11-16 06:54:00
2:01 AM,62.6,60.8,94,29.94,10.0,SSE,5.8,-,0.00,,Overcast,150,2011-11-16 07:01:00
2:09 AM,62.6,60.8,94,29.93,9.0,SSE,6.9,-,0.00,,Overcast,160,2011-11-16 07:09:00
2:11 AM,62.6,60.8,94,29.93,9.0,South,6.9,-,0.00,Rain,Light Rain,170,2011-11-16 07:11:00
2:31 AM,62.6,60.8,94,29.93,6.0,SSE,3.5,-,0.01,Rain,Light Rain,150,2011-11-16 07:31:00
2:47 AM,62.6,60.8,94,29.92,10.0,SE,6.9,-,0.01,,Overcast,140,2011-11-16 07:47:00
2:54 AM,62.1,61.0,96,29.87,10.0,SSE,5.8,-,0.01,,Overcast,150,2011-11-16 07:54:00
3:44 AM,62.6,60.8,94,29.91,5.0,South,3.5,-,0.01,Rain,Rain,190,2011-11-16 08:44:00
3:54 AM,62.1,60.1,93,29.85,4.0,SSE,4.6,-,0.03,Rain,Light Rain,150,2011-11-16 08:54:00
4:05 AM,62.6,60.8,94,29.90,9.0,SSE,5.8,-,0.00,Rain,Light Rain,150,2011-11-16 09:05:00
4:15 AM,62.6,60.8,94,29.90,10.0,SE,5.8,-,0.00,,Overcast,140,2011-11-16 09:15:00
4:54 AM,63.0,61.0,93,29.84,10.0,South,8.1,-,0.00,,Overcast,190,2011-11-16 09:54:00
5:28 AM,62.6,60.8,94,29.89,10.0,South,4.6,-,N/A,,Overcast,170,2011-11-16 10:28:00
5:54 AM,63.0,60.1,90,29.83,10.0,SSE,5.8,-,N/A,,Mostly Cloudy,150,2011-11-16 10:54:00
6:19 AM,62.6,60.8,94,29.91,4.0,South,5.8,-,0.02,Rain,Rain,170,2011-11-16 11:19:00
6:33 AM,62.6,60.8,94,29.88,3.0,Calm,Calm,-,0.09,Rain,Heavy Rain,0,2011-11-16 11:33:00
7:22 AM,62.6,60.8,94,29.90,6.0,SSE,5.8,-,0.07,Rain,Rain,150,2011-11-16 12:22:00
7:54 AM,62.1,61.0,96,29.86,5.0,Calm,Calm,-,0.18,Rain,Rain,0,2011-11-16 12:54:00
8:54 AM,62.1,61.0,96,29.86,10.0,SE,3.5,-,0.12,,Overcast,140,2011-11-16 13:54:00
9:36 AM,62.6,60.8,94,29.90,10.0,South,5.8,-,0.00,,Mostly Cloudy,170,2011-11-16 14:36:00
9:54 AM,63.0,61.0,93,29.84,10.0,Calm,Calm,-,0.00,,Mostly Cloudy,0,2011-11-16 14:54:00
10:12 AM,64.4,62.6,94,29.89,10.0,Calm,Calm,-,N/A,,Mostly Cloudy,0,2011-11-16 15:12:00
10:54 AM,64.0,60.1,87,29.84,10.0,South,9.2,-,0.00,Rain,Light Rain,180,2011-11-16 15:54:00
11:54 AM,66.0,61.0,84,29.80,10.0,SSE,8.1,-,0.00,,Mostly Cloudy,160,2011-11-16 16:54:00
12:02 PM,66.2,60.8,83,29.85,10.0,South,9.2,-,N/A,,Mostly Cloudy,170,2011-11-16 17:02:00
12:54 PM,66.0,61.0,84,29.76,10.0,South,12.7,-,0.00,,Overcast,170,2011-11-16 17:54:00
1:47 PM,66.2,60.8,83,29.80,10.0,South,15.0,24.2,N/A,,Mostly Cloudy,190,2011-11-16 18:47:00
1:54 PM,66.9,60.1,79,29.74,10.0,South,16.1,24.2,N/A,,Overcast,190,2011-11-16 18:54:00
2:35 PM,68.0,60.8,78,29.77,10.0,SSW,17.3,23.0,0.00,,Overcast,200,2011-11-16 19:35:00
2:51 PM,68.0,60.8,78,29.76,10.0,SSW,17.3,25.3,0.00,Rain,Light Rain,210,2011-11-16 19:51:00
2:54 PM,66.9,61.0,81,29.70,10.0,SSW,15.0,25.3,0.00,Rain,Light Rain,200,2011-11-16 19:54:00
3:54 PM,64.9,62.1,90,29.72,10.0,South,13.8,-,0.05,Rain,Light Rain,190,2011-11-16 20:54:00
4:54 PM,64.9,61.0,87,29.72,10.0,WSW,3.5,-,0.00,,Scattered Clouds,250,2011-11-16 21:54:00
5:32 PM,62.6,57.2,82,29.80,10.0,NNW,12.7,-,0.00,Rain,Light Rain,340,2011-11-16 22:32:00
5:54 PM,61.0,57.0,87,29.75,10.0,North,11.5,-,0.00,,Overcast,350,2011-11-16 22:54:00
6:13 PM,59.0,57.2,94,29.82,10.0,NNW,16.1,21.9,0.00,Rain,Rain,340,2011-11-16 23:13:00
6:36 PM,57.2,53.6,88,29.83,10.0,North,15.0,-,0.01,,Overcast,350,2011-11-16 23:36:00
6:50 PM,57.2,53.6,88,29.84,10.0,NNW,18.4,-,0.01,,Overcast,340,2011-11-16 23:50:00
6:54 PM,55.9,53.1,90,29.79,10.0,North,15.0,-,0.01,,Overcast,350,2011-11-16 23:54:00
7:28 PM,55.4,51.8,88,29.85,10.0,NNW,18.4,25.3,N/A,,Overcast,340,2011-11-17 00:28:00
7:54 PM,55.0,50.0,83,29.83,10.0,NNW,17.3,26.5,N/A,,Overcast,340,2011-11-17 00:54:00
8:54 PM,53.1,48.9,86,29.83,10.0,NNW,11.5,-,N/A,,Scattered Clouds,340,2011-11-17 01:54:00
9:54 PM,53.1,48.0,83,29.85,10.0,NNW,13.8,17.3,N/A,,Mostly Cloudy,340,2011-11-17 02:54:00
10:54 PM,52.0,46.9,83,29.86,10.0,North,9.2,18.4,N/A,,Overcast,350,2011-11-17 03:54:00
11:54 PM,52.0,46.0,80,29.86,10.0,North,11.5,-,N/A,,Overcast,350,2011-11-17 04:54:00